Time,TemperatureF,DewpointF,PressureIn,WindDirection,WindDirectionDegrees,WindSpeedMPH,WindSpeedGustMPH,Humidity,HourlyPrecipIn,Conditions,Clouds,dailyrainin,SoftwareType,DateUTC
2013-09-15 00:10:00,52.0,51.5,29.94,North,0,0.0,-999.0,98,-99.99,,,0.00,Acu-Link.com,2013-09-15 04:10:00,
2013-09-15 00:25:00,52.2,51.7,29.93,North,0,0.0,-999.0,98,-99.99,,,0.00,Acu-Link.com,2013-09-15 04:25:00,
2013-09-15 00:40:00,51.8,51.3,29.94,NNE,22,0.0,-999.0,98,-99.99,,,0.00,Acu-Link.com,2013-09-15 04:40:00,
2013-09-15 00:55:00,51.3,50.8,29.94,ESE,112,0.0,-999.0,98,-99.99,,,0.00,Acu-Link.com,2013-09-15 04:55:00,
2013-09-15 01:10:00,51.1,50.6,29.95,ENE,67,0.0,-999.0,98,-99.99,,,0.00,Acu-Link.com,2013-09-15 05:10:00,
2013-09-15 01:26:00,50.9,50.4,29.95,East,90,0.0,-999.0,98,-99.99,,,0.00,Acu-Link.com,2013-09-15 05:26:00,
2013-09-15 01:41:00,50.7,50.2,29.95,NE,45,0.0,-999.0,98,-99.99,,,0.00,Acu-Link.com,2013-09-15 05:41:00,
2013-09-15 01:56:00,50.5,50.0,29.95,ENE,67,0.0,-999.0,98,-99.99,,,0.00,Acu-Link.com,2013-09-15 05:56:00,
2013-09-15 02:11:00,50.5,50.0,29.96,SE,135,0.0,-999.0,98,-99.99,,,0.00,Acu-Link.com,2013-09-15 06:11:00,
2013-09-15 02:26:00,50.2,49.7,29.96,South,180,0.0,-999.0,98,-99.99,,,0.00,Acu-Link.com,2013-09-15 06:26:00,
2013-09-15 02:42:00,49.8,49.3,29.95,South,180,0.0,-999.0,98,-99.99,,,0.00,Acu-Link.com,2013-09-15 06:42:00,
2013-09-15 02:57:00,49.8,49.3,29.96,South,180,0.0,-999.0,98,-99.99,,,0.00,Acu-Link.com,2013-09-15 06:57:00,
2013-09-15 03:12:00,49.8,49.3,29.96,WNW,292,0.0,-999.0,98,-99.99,,,0.00,Acu-Link.com,2013-09-15 07:12:00,
2013-09-15 03:27:00,49.8,49.3,29.96,East,90,0.0,-999.0,98,-99.99,,,0.00,Acu-Link.com,2013-09-15 07:27:00,
2013-09-15 03:42:00,49.3,48.8,29.96,South,180,0.0,-999.0,98,-99.99,,,0.00,Acu-Link.com,2013-09-15 07:42:00,
2013-09-15 03:57:00,49.3,48.8,29.97,East,90,0.0,-999.0,98,-99.99,,,0.00,Acu-Link.com,2013-09-15 07:57:00,
2013-09-15 04:13:00,49.5,49.0,29.97,ESE,112,0.0,-999.0,98,-99.99,,,0.00,Acu-Link.com,2013-09-15 08:13:00,
2013-09-15 04:29:00,49.5,49.0,29.97,ESE,112,0.0,-999.0,98,-99.99,,,0.00,Acu-Link.com,2013-09-15 08:29:00,
2013-09-15 04:44:00,49.3,48.8,29.97,SE,135,0.0,-999.0,98,-99.99,,,0.00,Acu-Link.com,2013-09-15 08:44:00,
2013-09-15 04:59:00,49.3,48.8,29.97,ESE,112,0.0,-999.0,98,-99.99,,,0.00,Acu-Link.com,2013-09-15 08:59:00,
2013-09-15 05:14:00,49.8,49.3,29.97,ESE,112,0.0,-999.0,98,-99.99,,,0.00,Acu-Link.com,2013-09-15 09:14:00,
2013-09-15 05:30:00,51.1,50.6,29.98,East,90,0.0,-999.0,98,-99.99,,,0.00,Acu-Link.com,2013-09-15 09:30:00,
2013-09-15 05:45:00,51.6,51.1,29.99,SE,135,0.0,-999.0,98,-99.99,,,0.00,Acu-Link.com,2013-09-15 09:45:00,
2013-09-15 06:00:00,52.0,51.5,29.99,East,90,0.0,-999.0,98,-99.99,,,0.00,Acu-Link.com,2013-09-15 10:00:00,
2013-09-15 06:15:00,52.0,51.5,29.99,ENE,67,0.0,-999.0,98,-99.99,,,0.00,Acu-Link.com,2013-09-15 10:15:00,
2013-09-15 06:30:00,52.0,51.5,29.99,ESE,112,0.0,-999.0,98,-99.99,,,0.00,Acu-Link.com,2013-09-15 10:30:00,
2013-09-15 06:46:00,52.3,51.8,29.99,NE,45,0.0,-999.0,98,-99.99,,,0.00,Acu-Link.com,2013-09-15 10:46:00,
2013-09-15 07:01:00,52.2,51.7,30.00,SSW,202,0.0,-999.0,98,-99.99,,,0.00,Acu-Link.com,2013-09-15 11:01:00,
2013-09-15 07:21:00,52.2,51.7,30.01,ENE,67,0.0,-999.0,98,-99.99,,,0.00,Acu-Link.com,2013-09-15 11:21:00,
2013-09-15 07:36:00,52.9,52.4,30.01,NE,45,0.0,-999.0,98,-99.99,,,0.00,Acu-Link.com,2013-09-15 11:36:00,
2013-09-15 07:51:00,53.2,52.6,30.01,NE,45,0.0,-999.0,98,-99.99,,,0.00,Acu-Link.com,2013-09-15 11:51:00,
2013-09-15 08:06:00,54.0,53.4,30.01,SE,135,0.0,-999.0,98,-99.99,,,0.00,Acu-Link.com,2013-09-15 12:06:00,
2013-09-15 08:22:00,55.2,54.6,30.01,SE,135,0.0,-999.0,98,-99.99,,,0.00,Acu-Link.com,2013-09-15 12:22:00,
2013-09-15 08:37:00,56.3,55.7,30.01,SSE,157,0.0,-999.0,98,-99.99,,,0.00,Acu-Link.com,2013-09-15 12:37:00,
2013-09-15 08:52:00,57.4,56.8,30.02,ENE,67,0.0,-999.0,98,-99.99,,,0.00,Acu-Link.com,2013-09-15 12:52:00,
2013-09-15 09:07:00,59.0,58.4,30.02,NW,315,0.0,-999.0,98,-99.99,,,0.00,Acu-Link.com,2013-09-15 13:07:00,
2013-09-15 09:23:00,60.4,59.8,30.02,SE,135,0.0,-999.0,98,-99.99,,,0.00,Acu-Link.com,2013-09-15 13:23:00,
2013-09-15 09:38:00,61.7,61.1,30.02,South,180,0.0,-999.0,98,-99.99,,,0.00,Acu-Link.com,2013-09-15 13:38:00,
2013-09-15 09:53:00,65.1,64.5,30.03,ESE,112,0.0,-999.0,98,-99.99,,,0.00,Acu-Link.com,2013-09-15 13:53:00,
2013-09-15 10:09:00,65.3,64.7,30.02,ESE,112,0.0,-999.0,98,-99.99,,,0.00,Acu-Link.com,2013-09-15 14:09:00,
2013-09-15 10:25:00,65.1,64.5,30.03,SSW,202,1.1,-999.0,98,-99.99,,,0.00,Acu-Link.com,2013-09-15 14:25:00,
2013-09-15 10:40:00,66.9,66.3,30.03,ENE,67,1.7,-999.0,98,-99.99,,,0.00,Acu-Link.com,2013-09-15 14:40:00,
2013-09-15 10:55:00,70.2,69.6,30.03,South,180,3.7,-999.0,98,-99.99,,,0.00,Acu-Link.com,2013-09-15 14:55:00,
2013-09-15 11:10:00,71.1,70.5,30.02,SSE,157,2.2,-999.0,98,-99.99,,,0.00,Acu-Link.com,2013-09-15 15:10:00,
2013-09-15 11:26:00,73.0,72.4,30.02,North,0,2.2,-999.0,98,-99.99,,,0.00,Acu-Link.com,2013-09-15 15:26:00,
2013-09-15 11:41:00,72.3,71.7,30.02,NW,315,2.7,-999.0,98,-99.99,,,0.00,Acu-Link.com,2013-09-15 15:41:00,
2013-09-15 11:56:00,72.7,72.1,30.02,East,90,2.2,-999.0,98,-99.99,,,0.00,Acu-Link.com,2013-09-15 15:56:00,
2013-09-15 12:11:00,73.2,72.6,30.02,NNE,22,2.7,-999.0,98,-99.99,,,0.00,Acu-Link.com,2013-09-15 16:11:00,
2013-09-15 12:27:00,73.4,72.8,30.01,NE,45,1.1,-999.0,98,-99.99,,,0.00,Acu-Link.com,2013-09-15 16:27:00,
2013-09-15 12:42:00,76.5,75.9,30.00,NW,315,2.7,-999.0,98,-99.99,,,0.00,Acu-Link.com,2013-09-15 16:42:00,
2013-09-15 12:57:00,73.9,73.3,30.00,North,0,2.7,-999.0,98,-99.99,,,0.00,Acu-Link.com,2013-09-15 16:57:00,
2013-09-15 13:12:00,73.8,73.2,30.00,WNW,292,4.2,-999.0,98,-99.99,,,0.00,Acu-Link.com,2013-09-15 17:12:00,
2013-09-15 13:27:00,73.2,72.6,30.00,WNW,292,0.0,-999.0,98,-99.99,,,0.00,Acu-Link.com,2013-09-15 17:27:00,
2013-09-15 13:43:00,73.0,72.4,30.00,ENE,67,2.2,-999.0,98,-99.99,,,0.00,Acu-Link.com,2013-09-15 17:43:00,
2013-09-15 13:58:00,73.0,72.4,29.99,East,90,1.1,-999.0,98,-99.99,,,0.00,Acu-Link.com,2013-09-15 17:58:00,
2013-09-15 14:13:00,73.2,72.6,29.99,SSE,157,2.2,-999.0,98,-99.99,,,0.00,Acu-Link.com,2013-09-15 18:13:00,
2013-09-15 14:28:00,73.2,72.6,29.98,East,90,0.0,-999.0,98,-99.99,,,0.00,Acu-Link.com,2013-09-15 18:28:00,
2013-09-15 14:43:00,73.4,72.8,29.97,ESE,112,1.1,-999.0,98,-99.99,,,0.00,Acu-Link.com,2013-09-15 18:43:00,
2013-09-15 14:59:00,73.9,73.3,29.97,NW,315,3.7,-999.0,98,-99.99,,,0.00,Acu-Link.com,2013-09-15 18:59:00,
2013-09-15 15:14:00,74.1,73.5,29.96,ESE,112,2.2,-999.0,98,-99.99,,,0.00,Acu-Link.com,2013-09-15 19:14:00,
2013-09-15 15:29:00,76.1,75.5,29.96,WSW,247,2.2,-999.0,98,-99.99,,,0.00,Acu-Link.com,2013-09-15 19:29:00,
2013-09-15 15:45:00,75.7,75.1,29.95,East,90,1.1,-999.0,98,-99.99,,,0.00,Acu-Link.com,2013-09-15 19:45:00,
2013-09-15 16:00:00,74.7,74.1,29.94,NE,45,3.2,-999.0,98,-99.99,,,0.00,Acu-Link.com,2013-09-15 20:00:00,
2013-09-15 16:15:00,76.8,76.2,29.94,ESE,112,2.2,-999.0,98,-99.99,,,0.00,Acu-Link.com,2013-09-15 20:15:00,
2013-09-15 16:34:00,74.8,74.2,29.94,ESE,112,2.7,-999.0,98,-99.99,,,0.00,Acu-Link.com,2013-09-15 20:34:00,
2013-09-15 16:50:00,75.7,75.1,29.94,NE,45,5.3,-999.0,98,-99.99,,,0.00,Acu-Link.com,2013-09-15 20:50:00,
2013-09-15 17:05:00,75.2,74.6,29.94,ENE,67,0.0,-999.0,98,-99.99,,,0.00,Acu-Link.com,2013-09-15 21:05:00,
2013-09-15 17:36:00,75.7,75.1,29.94,ENE,67,1.7,-999.0,98,-99.99,,,0.00,Acu-Link.com,2013-09-15 21:36:00,
2013-09-15 17:52:00,75.2,74.6,29.94,ESE,112,2.2,-999.0,98,-99.99,,,0.00,Acu-Link.com,2013-09-15 21:52:00,
2013-09-15 18:17:00,75.0,74.4,29.93,NNW,337,1.1,-999.0,98,-99.99,,,0.00,Acu-Link.com,2013-09-15 22:17:00,
2013-09-15 18:52:00,75.0,74.4,29.94,ENE,67,1.1,-999.0,98,-99.99,,,0.00,Acu-Link.com,2013-09-15 22:52:00,
2013-09-15 19:43:00,70.5,69.9,29.94,ESE,112,0.0,-999.0,98,-99.99,,,0.00,Acu-Link.com,2013-09-15 23:43:00,
2013-09-15 20:00:00,66.6,66.0,29.95,NNE,22,0.0,-999.0,98,-99.99,,,0.00,Acu-Link.com,2013-09-16 00:00:00,
2013-09-15 20:15:00,64.2,63.6,29.94,NNE,22,0.0,-999.0,98,-99.99,,,0.00,Acu-Link.com,2013-09-16 00:15:00,
2013-09-15 20:31:00,63.3,62.7,29.95,WSW,247,0.0,-999.0,98,-99.99,,,0.00,Acu-Link.com,2013-09-16 00:31:00,
2013-09-15 20:46:00,62.6,62.0,29.94,West,270,0.0,-999.0,98,-99.99,,,0.00,Acu-Link.com,2013-09-16 00:46:00,
2013-09-15 21:01:00,61.7,61.1,29.95,SSW,202,0.0,-999.0,98,-99.99,,,0.00,Acu-Link.com,2013-09-16 01:01:00,
2013-09-15 21:16:00,61.2,60.6,29.95,NE,45,0.0,-999.0,98,-99.99,,,0.00,Acu-Link.com,2013-09-16 01:16:00,
2013-09-15 21:31:00,60.8,60.2,29.96,ENE,67,0.0,-999.0,98,-99.99,,,0.00,Acu-Link.com,2013-09-16 01:31:00,
2013-09-15 21:47:00,60.3,59.7,29.96,NNE,22,0.0,-999.0,98,-99.99,,,0.00,Acu-Link.com,2013-09-16 01:47:00,
2013-09-15 22:02:00,59.9,59.3,29.96,South,180,0.0,-999.0,98,-99.99,,,0.00,Acu-Link.com,2013-09-16 02:02:00,
2013-09-15 22:17:00,59.4,58.8,29.97,South,180,0.0,-999.0,98,-99.99,,,0.00,Acu-Link.com,2013-09-16 02:17:00,
2013-09-15 22:32:00,59.0,58.4,29.97,NE,45,0.0,-999.0,98,-99.99,,,0.00,Acu-Link.com,2013-09-16 02:32:00,
2013-09-15 22:48:00,58.5,57.9,29.97,East,90,0.0,-999.0,98,-99.99,,,0.00,Acu-Link.com,2013-09-16 02:48:00,
2013-09-15 23:03:00,58.3,57.7,29.97,ENE,67,0.0,-999.0,98,-99.99,,,0.00,Acu-Link.com,2013-09-16 03:03:00,
2013-09-15 23:18:00,57.6,57.0,29.96,West,270,0.0,-999.0,98,-99.99,,,0.00,Acu-Link.com,2013-09-16 03:18:00,
2013-09-15 23:33:00,57.2,56.6,29.97,WNW,292,0.0,-999.0,98,-99.99,,,0.00,Acu-Link.com,2013-09-16 03:33:00,
2013-09-15 23:48:00,57.2,56.6,29.97,SE,135,0.0,-999.0,98,-99.99,,,0.00,Acu-Link.com,2013-09-16 03:48:00,